STARLINK-1540, 46051

Orbit data source: Space-Track

STARLINK-1540, 46051 is a payload satellite owned by SpaceX/Seattle (US) in LEO that was launched on Fri, 07 Aug 2020 UTC via an FALCON 9 launch vehicle from the Air Force Eastern Test Range (AFETR). Payloads include a variety of satellites, spacecraft, and rockets equipped with specific instruments for various scientific and technological missions. These include communications satellites like Starlink; space stations such as the ISS; scientific satellites like the Hubble; Earth observation satellites from companies like Planet Labs, Umbra, and HawkEye 360; GPS; miniature CubeSats for education and research; and military/defense satellites.

Loading next visibility...
STARLINK-1540 details
Identifier
46051, 2020-055AA
Orbit
LEO
Last TLE update16 hours ago
Origin
Flag of USSpaceX/Seattle (US)
ManufacturerSpaceX/Seattle
MissionOperational Commercial Communications
Bus & MotorSTARLINK, Unknown motor
Mass260 kg wet, ~248 kg dry
Launch date (UTC)
2020-08-07 (4 years ago)
Launch vehicle
FALCON 9
Launch site
Air Force Eastern Test Range (AFETR)
Object type
Payload
Rocket body
Debris
Shape & HBRBox + 1 Pan, 8.86 m
Radar Cross Section13.562 m², Large (>1 m²)

Expand to show TLE details & history

TLE from 16 hours ago
0 STARLINK-1540
1 46051U 20055AA  24339.45185319  .00026813  00000-0  18102-2 0  9999
2 46051  53.0543  22.7079 0001478 109.0201 251.0948 15.06438554239675
Epoch: 2024-12-04T10:50Z
Definitive object data (Epoch: 2024-12-04T10:50:40.115Z)
Latitude-0.00004°
Longitude146.29391°
Altitude548.304 km
Speed7.589 km/s
True Right ascension01h 30m 49s
True Declination0° 00' 00"
Sunlit
Object was in full shadow at TLE epoch
Visualization TLE readout
Latitude33.88325°
Longitude173.42928°
Altitude548.944 km
Speed7.592 km/s
Apparent Right ascension07h 11m 40s
Apparent Declination-3° 51' 06"
Sunlit
Object is in full shadow
Visualization observer readout
Local Sidereal Time00:54:51
Azimuth90.264° ESE
Elevation-5.693°
Doppler factor1
Orbital elements
Apogee altitude548.388 km
Perigee altitude546.341 km
Semi-major axis6,925.501 km
Eccentricity0.0001478
Inclination53.0543°
RAAN22.7079°
Arg. of periapsis109.0201°
True anomaly251.07878°
Mean anomaly251.0948°
Eccentric anomaly251.08679°
Mean motion3.76588 °/min
BSTAR0.0018102
Orbital period95.6 mins
Loading maneuver chart data...
Loading historical data...
Loading historical data...
Loading historical data...
Loading historical data...
Loading historical data...
Loading historical data...
Loading historical data...

STARLINK-1540 Visibility forecast

Observer location: undefined°, undefined

Span
Click to sort rows by Start time (UTC) header in descending order
Start Az.
Max El. time (UTC)
Max El. Az.
Max El.
End time (UTC)
End Az.
4 mins2024-12-05 04:30:41.703Z161.475° S2024-12-05 04:32:41.703Z128.943° SE16.406°2024-12-05 04:34:41.703Z95.204° ESE
6 mins2024-12-05 06:09:41.703Z246.454° WSW2024-12-05 06:11:41.703Z300.467° NW41.864°2024-12-05 06:15:41.703Z44.902° NE
4 mins2024-12-05 07:50:41.703Z316.793° NNW2024-12-05 07:51:41.703Z334.613° NNW17.144°2024-12-05 07:54:41.703Z24° NE
5 mins2024-12-05 11:11:41.703Z344.949° N2024-12-05 11:13:41.703Z26.664° NE22.777°2024-12-05 11:16:41.703Z78.572° E
6 mins2024-12-05 12:50:41.703Z301.256° NW2024-12-05 12:53:41.703Z197.622° SSW41.819°2024-12-05 12:56:41.703Z143.073° SSE
|